Location: Pine Mountain Observatory
(43.7910°N, 120.9377°W)
Time: 08:12:57
(UTC-07:00)

Daily predictions for brighter satellites

Satellite Brightness Start Highest point End
(mag) Time Altitude Azimuth Time Altitude Azimuth Time Altitude Azimuth
NOSS 7 (D) 4.4 20:11:10 10° SSW 20:14:33 57° ESE 20:17:53 10° NE
Cosmos 1697 Rocket 3.8 20:12:12 10° SSE 20:16:30 23° E 20:20:48 10° NE
Resurs 01 Rocket 2.6 20:17:51 10° S 20:22:11 52° W 20:26:32 10° NNW
Cosmos 2278 3.7 20:18:14 10° SSW 20:23:51 70° ESE 20:29:32 10° NNE
Cosmos 1544 Rocket 3.7 20:19:42 10° S 20:24:05 85° W 20:28:33 10° N
Meteor 2-4 Rocket 4.5 20:18:50 10° NNW 20:24:36 61° W 20:30:26 10° S
NOSS 3-4 (A) 4.2 20:20:32 10° NW 20:27:30 68° WSW 20:34:51 10° SSE
NOSS 3-4 (C) 4.2 20:20:39 10° NW 20:27:37 69° WSW 20:35:00 10° SSE
H-2A R/B 2.8 20:24:16 10° SSE 20:28:06 65° ENE 20:32:02 10° N
ALOS 2.3 20:23:34 10° SSE 20:28:14 82° ENE 20:32:56 10° N
Cosmos 1934 Rocket 4.0 20:22:12 10° S 20:28:20 86° E 20:34:37 10° N
CZ-4B DEB 3.1 20:25:15 10° S 20:28:31 72° W 20:31:49 10° NNW
Cosmos 1975 3.4 20:24:47 10° SSE 20:28:34 37° E 20:32:22 10° NNE
USA 186 1.7 20:26:21 10° SSE 20:29:22 53° ENE 20:32:12 10° N
Helios 1B rocket 3.8 20:27:13 10° N 20:31:11 45° WNW 20:35:06 10° SW
Cosmos 2208 Rocket 4.2 20:28:33 10° SSW 20:33:52 86° WNW 20:39:20 10° NNE
Lacrosse 5 rocket 1.2 20:30:09 10° NW 20:33:54 72° SW 20:37:26 10° SE
OTV 4 2.6 20:32:54 10° WSW 20:34:52 16° SSW 20:36:50 10° SSE
Okean 2 4.2 20:32:58 10° NNW 20:37:04 55° W 20:41:07 10° S
Cosmos 2369 3.7 20:32:20 10° SSW 20:38:00 80° ESE 20:43:44 10° NNE
Cosmos 2298 Rocket 4.3 20:34:21 10° NNW 20:39:35 52° ENE 20:44:41 10° SE
Cosmos 1980 Rocket 3.3 20:35:26 10° SSE 20:39:36 22° E 20:43:49 10° NE
EO 1 Delta rocket 3.9 20:37:43 10° NNE 20:42:25 78° E 20:47:47 10° S
BREEZE-M DEB (TANK) 4.3 20:40:01 10° SW 20:44:05 65° SE 20:58:54 10° ENE
Envisat 3.8 20:40:39 12° SE 20:44:48 34° ENE 20:49:22 10° N
Cosmos 1937 Rocket 4.1 20:40:30 10° N 20:45:27 39° ENE 20:49:28 15° SE
Iridium 4 Rocket 3.5 20:40:38 10° N 20:45:39 55° E 20:50:12 10° SSE
CZ-2D R/B 3.7 20:44:58 10° S 20:48:49 63° W 20:52:42 10° NNW
Tiangong 1 1.0 20:46:18 10° W 20:49:24 71° S 20:51:19 21° ESE
NOSS 7 (H) 4.4 20:50:24 10° SW 20:53:42 80° NW 20:57:13 10° NE
FENGYUN 3A 4.3 20:54:49 10° S 21:00:03 56° W 21:05:20 10° NNW
Cosmos 1500 3.2 20:57:32 10° S 21:01:13 55° E 21:04:55 10° NNE
Meteor 1-12 Rocket 4.3 20:56:50 10° S 21:02:35 87° W 21:08:29 10° N
Cosmos 1656 3.6 20:58:16 10° SSW 21:03:51 75° ESE 21:09:24 10° NNE
Cosmos 2263 Rocket 4.2 21:01:38 10° NNE 21:04:14 13° NE 21:06:49 10° ENE
Cosmos 1939 Rocket 3.2 21:01:50 19° SE 21:04:36 51° ENE 21:08:39 10° N
Cosmos 1825 Rocket 4.2 21:00:32 10° N 21:04:40 37° ENE 21:06:48 23° SE
Cosmos 2150 Rocket 3.9 21:00:30 10° NNW 21:05:40 76° ENE 21:09:44 17° SSE
Cosmos 2227 Rocket 3.2 21:01:41 10° NW 21:07:02 44° WSW 21:12:21 10° S
BREEZE-M TANK 3.4 20:57:09 10° WNW 21:09:48 80° SSW 21:12:07 25° ESE
Cosmos 1340 3.5 21:07:13 10° N 21:10:42 33° ENE 21:11:43 28° ESE
Lacrosse 5 1.8 21:07:15 10° NW 21:12:20 79° NE 21:15:16 26° SE
Cosmos 2173 Rocket 4.1 21:06:23 10° SSE 21:12:32 54° E 21:18:41 10° NNE
ERS-1 Rocket 2.9 21:08:10 14° SSE 21:12:33 78° ENE 21:17:36 10° N
Cosmos 2322 Rocket 4.0 21:14:22 13° ENE 21:14:22 13° ENE 21:15:42 10° ENE
YAOGAN 6 3.9 21:13:20 23° E 21:13:49 24° ENE 21:16:50 10° NNE
Cosmos 1953 Rocket 4.3 21:10:54 10° N 21:15:00 35° ENE 21:16:29 28° ESE
YAOGAN 11 4.2 21:15:33 14° S 21:19:29 80° WSW 21:23:58 10° NNW
H-2A R/B 2.3 21:17:55 30° SE 21:19:30 46° ENE 21:23:29 10° N
DELTA 2 R/B (1) 4.3 21:15:25 10° W 21:20:33 39° SSW 21:23:11 24° SSE
SPOT 5 3.3 21:19:02 27° SE 21:21:20 45° ENE 21:25:54 10° N
Cosmos 2297 Rocket 3.1 21:16:55 10° NW 21:22:19 46° WSW 21:27:41 10° S
Cosmos 1515 4.3 21:19:37 10° NNW 21:23:25 55° W 21:26:46 12° S
Cosmos 1898 Rocket 3.7 21:19:09 10° NNW 21:24:27 72° WSW 21:28:26 17° S
Cosmos 1763 Rocket 3.8 21:21:34 18° SSE 21:24:56 41° ESE 21:29:41 10° NE
Cosmos 2100 Rocket 3.9 21:20:05 10° S 21:26:20 75° E 21:32:33 10° N
Cosmos 2227 4.4 21:23:46 10° NNW 21:29:27 56° ENE 21:32:00 31° ESE
CZ-4 DEB 3.7 21:28:30 21° SSW 21:30:16 46° W 21:33:19 10° NNW
Cosmos 1125 Rocket 4.5 21:25:53 10° N 21:30:29 30° ENE 21:31:54 26° E
RESURS DK-1 2.3 21:26:35 10° NNW 21:30:45 86° WSW 21:32:21 37° SSE
Cosmos 2061 Rocket 3.9 21:27:28 10° S 21:33:46 78° E 21:40:02 10° N
Cosmos 1758 Rocket 3.8 21:29:36 10° N 21:33:49 46° ENE 21:34:39 41° ESE
Cosmos 2084 4.2 21:31:20 10° NW 21:35:13 43° WSW 21:37:09 26° S
deb Chang Zheng 4 3.6 21:31:40 10° NNE 21:36:06 60° ESE 21:38:05 31° S
Nimbus 7 Rocket 4.4 21:31:17 10° NNE 21:37:19 62° ESE 21:42:45 13° S
MetOp-A 4.2 21:36:02 33° SE 21:38:18 60° ENE 21:43:35 10° N
Cosmos 1743 2.6 21:36:51 27° S 21:38:54 87° ESE 21:42:51 10° N
Cosmos 468 Rocket 4.2 21:35:48 10° SSW 21:40:54 70° WNW 21:46:03 10° NNE
Cosmos 841 Rocket 3.5 21:44:51 28° S 21:47:29 58° ESE 21:52:37 10° NNE
Terra 3.4 21:50:19 20° ENE 21:50:19 20° ENE 21:53:41 10° NNE
Cosmos 1814 Rocket 4.3 21:46:13 10° SSW 21:51:32 68° WNW 21:56:50 10° NNE
USA 215 3.9 21:50:35 24° E 21:54:12 47° NNE 22:00:23 10° NW
OAO 2 Rocket 4.4 21:52:17 10° WSW 21:56:23 29° S 21:56:23 29° S
Cosmos 1459 Rocket 4.2 21:52:05 10° SSW 21:58:05 67° W 22:04:12 10° N
Cosmos 2058 Rocket 3.0 21:59:31 65° ESE 21:59:47 67° E 22:04:17 10° NNE
Cosmos 1725 Rocket 4.0 21:57:34 39° SSE 21:59:49 62° E 22:05:58 10° NNE
Cosmos 1697 Rocket 3.4 21:54:30 10° SW 22:00:02 55° WNW 22:05:36 10° NNE
SL-19 R/B 4.2 21:55:34 10° NNE 22:00:57 55° ESE 22:01:34 51° SE
Cosmos 1842 3.2 22:02:18 10° N 22:05:58 76° N 22:05:58 76° N
Cosmos 1606 Rocket 3.8 22:04:30 34° SSW 22:06:18 66° W 22:10:44 10° N
SL-16 R/B 2.9 22:09:53 36° ENE 22:09:53 36° ENE 22:13:53 10° NE
ASTEX 1 3.4 22:05:03 10° N 22:10:05 80° W 22:11:45 43° SSW
NOAA 11 4.1 22:09:44 57° SE 22:10:46 72° ENE 22:16:14 10° N
Cosmos 372 Rocket 4.4 22:10:17 10° N 22:15:12 44° ENE 22:15:13 44° ENE
ARGOS 3.0 22:16:35 64° SE 22:17:23 80° ENE 22:22:48 10° NNW
Cosmos 1980 Rocket 2.7 22:17:32 10° SW 22:23:07 58° WNW 22:28:46 10° NNE
Cosmos 2360 Rocket 4.4 22:27:34 12° ENE 22:27:34 12° ENE 22:28:10 10° NE
Cosmos 2233 Rocket 3.9 22:24:24 58° ESE 22:24:48 60° E 22:30:56 10° NNE
Tiangong 1 4.0 22:22:54 10° W 22:23:17 13° W 22:23:17 13° W
Cosmos 1666 3.6 22:26:23 48° NW 22:26:23 48° NW 22:29:30 10° N
BREEZE-M DEB (TANK) 3.9 22:08:56 10° WNW 22:29:02 82° NNE 22:30:48 52° ESE
H-2A R/B 2.2 22:39:08 59° NNE 22:39:08 59° NNE 22:43:24 10° N
CZ-4B R/B 3.5 22:36:46 10° NNE 22:40:56 67° N 22:40:56 67° N
Meteor 2-5 Rocket 3.9 22:37:45 10° N 22:43:26 63° ENE 22:43:26 63° ENE
Cosmos 2263 Rocket 2.3 22:43:43 10° NNW 22:48:52 65° NE 22:48:52 65° NE
SL-08 RB Rocket 4.3 22:49:59 55° WNW 22:49:59 55° WNW 22:54:03 10° NNW
Lacrosse 5 3.8 22:51:16 10° WNW 22:54:28 19° WSW 22:54:28 19° WSW
Cosmos 1375 Rocket 4.5 22:54:34 64° SSW 22:55:44 89° WNW 23:02:23 10° NNE
H-2A R/B 4.4 22:55:03 15° WSW 22:55:48 15° W 22:58:14 10° NW
Cosmos 2322 Rocket 2.2 22:56:06 77° NW 22:56:06 77° NW 23:01:34 10° NNE
SPOT 1/Viking Rocket 4.4 22:57:26 41° WSW 22:57:47 41° W 23:02:43 10° NNW
Meteor 1-24 Rocket 4.3 22:56:34 10° N 23:01:43 51° NE 23:01:43 51° NE
Cosmos 1464 Rocket 4.4 23:10:46 54° NE 23:10:46 54° NE 23:15:57 10° NNE
Terra 3.2 23:29:13 36° NW 23:29:13 36° NW 23:32:18 10° NNW
Cosmos 2278 Rocket 4.0 23:32:38 10° N 23:36:40 22° NE 23:36:40 22° NE
USA 215 3.5 23:37:56 60° W 23:37:56 60° W 23:43:34 10° NW
SL-16 R/B 3.7 23:51:41 30° WNW 23:52:47 32° NW 23:57:52 10° N
